sat.trackr.live / text

‹ back to catalog

STARLINK-4343

NORAD 53050 · 2022-077H

PAYLOAD ACTIVE UNKNOWN

§ Identity

Operator
Country
US
Launch date
2022-07-11
Launch site
AFWTR
Launch vehicle
Mass (kg)
RCS (m²)

Purposes: comms

External: N2YO · Heavens-Above · Gunter

§ Orbital elements

Epoch: 2026-09-19T17:41:06.149472Z

Period
93.91 min
Inclination
97.2855°
Eccentricity
0.0001314
Mean motion
15.33434919 rev/d
Perigee alt
464.7 km
Apogee alt
466.5 km
Semi-major
6,843.7 km
B*
1.1653e-5
RAAN
78.5095°
Arg perigee
90.2522°
Mean anomaly
269.8871°
Rev number
23,023

§ Raw data

STARLINK-43431 53050U 22077H   26262.73687673  .00000301  00000+0  11653-4 0  99992 53050  97.2855  78.5095 0001314  90.2522 269.8871 15.33434919230237

JSON: /api/v1/satellites/53050 · /tle

For live sub-satellite position, see the globe view (requires WebGL).

§ Visibility from observer

Set your observer location to see the next 7 days of passes ≥ 10°. The values pass through the URL so the page stays shareable.

No JS? Fill the form by hand. The geolocation button needs JavaScript.